Location: Silverdale
(47.6506°N, 122.6941°W)
Time: 00:03:59
(UTC+00:00)

A-11 Canister half - Pass Details

Date: 06 October 2022
Orbit: 1524 x 1685 km, 47.3° (Epoch: 05 December)

Event Time Altitude Azimuth Distance (km) Brightness Sun altitude
Rises 02:32:24 0° 279° (W) 4,680 13.8 -9.4°
Reaches altitude 10° 02:35:25 10° 278° (W) 3,705 12.6 -9.9°
Maximum altitude 02:44:47 83° 193° (SSW) 1,573 9.1 -11.4°
Enters shadow 02:53:11 15° 108° (ESE) 3,411 10.2 -12.9°
